sat.trackr.live / text

‹ back to catalog

STARLINK-2468

NORAD 48127 · 2021-027AM

PAYLOAD ACTIVE UNKNOWN

§ Identity

Operator
Country
US
Launch date
2021-04-07
Launch site
AFETR
Launch vehicle
Mass (kg)
RCS (m²)

Purposes: comms

External: N2YO · Heavens-Above · Gunter

§ Orbital elements

Epoch: 2026-09-19T22:10:20.860320Z

Period
94.01 min
Inclination
53.1613°
Eccentricity
0.0001515
Mean motion
15.31699575 rev/d
Perigee alt
469.7 km
Apogee alt
471.8 km
Semi-major
6,848.9 km
B*
-1.0643e-5
RAAN
341.4674°
Arg perigee
82.8573°
Mean anomaly
277.2601°
Rev number
30,227

§ Raw data

STARLINK-24681 48127U 21027AM  26262.92385255 -.00000696  00000+0 -10643-4 0  99912 48127  53.1613 341.4674 0001515  82.8573 277.2601 15.31699575302277

JSON: /api/v1/satellites/48127 · /tle

For live sub-satellite position, see the globe view (requires WebGL).

§ Visibility from observer

Set your observer location to see the next 7 days of passes ≥ 10°. The values pass through the URL so the page stays shareable.

No JS? Fill the form by hand. The geolocation button needs JavaScript.